Weather History for Bangkok (Suvarnabhumi), Thailand

Change the Weather History Date:

Tuesday, March 5, 2013

  Actual Average (VTBD) Record (VTBD)
Temperature  
Mean Temperature 80 °F -  
Max Temperature 87 °F 93 °F 98 °F (1997)
Min Temperature 72 °F 76 °F 71 °F (2005)
Cooling Degree Days 14    
Growing Degree Days 30 (Base 50)    
Moisture  
Dew Point 65 °F    
Average Humidity 61    
Maximum Humidity 78    
Minimum Humidity 43    
Precipitation  
Precipitation 0.00 in 0.05 in - ()
Sea Level Pressure  
Sea Level Pressure 29.98 in    
Wind  
Wind Speed 7 mph ()    
Max Wind Speed 12 mph    
Max Gust Speed -    
Visibility 5.9 miles    
Events      
Averages and records for this station are not official NWS values.
T = Trace of Precipitation, MM = Missing Value Source: Averaged Metar Reports

Daily Weather History Graph

Daily Weather History Graph

Search for Another Location

Airport:

Trip Planner

Search our weather history database for the weather conditions in past years. The results will help you decide how hot, cold, wet, or windy it might be!

Date:

Astronomy

Mar. 05, 2013 Rise Set
Actual Time 6:29 AM ICT 6:25 PM ICT
Civil Twilight 6:08 AM ICT 6:46 PM ICT
Nautical Twilight 5:43 AM ICT 7:11 PM ICT
Astronomical Twilight 5:19 AM ICT 7:36 PM ICT
Moon 12:28 AM ICT (3/5) 12:14 PM ICT (3/5)
Length of Visible Light 12h 38m
Length of Day
11h 55m
Waning Gibbous, 47% of the Moon is Illuminated
Mar 5
Waning Gibbous
Mar 12
New
Mar 20
First Quarter
Mar 27
Full
Apr 3
Last Quarter

Hourly Weather History & Observations

Time (ICT) Temp. Heat Index Dew Point Humidity Pressure Visibility Wind Dir Wind Speed Gust Speed Precip Events Conditions
12:00 AM 75.2 °F - 68.0 °F 78% 30.01 in 5.6 mi NNW 10.4 mph - N/A   Overcast
12:30 AM 75.2 °F - 66.2 °F 73% 30.01 in 5.6 mi NNW 10.4 mph - N/A   Overcast
1:00 AM 76 °F - 70 °F 75% 29.98 in 5 mi Calm Calm - -   Mist
1:00 AM 75.2 °F - 66.2 °F 73% 30.01 in 5.6 mi NNW 9.2 mph - N/A   Overcast
1:30 AM 75.2 °F - 66.2 °F 73% 29.98 in 5.6 mi NNW 10.4 mph - N/A   Overcast
2:00 AM 73.4 °F - 66.2 °F 78% 29.98 in 5.6 mi NNW 9.2 mph - N/A   Overcast
2:30 AM 73.4 °F - 66.2 °F 78% 29.98 in 5.6 mi NNW 6.9 mph - N/A   Overcast
3:00 AM 73.4 °F - 66.2 °F 78% 29.98 in 5.6 mi North 8.1 mph - N/A   Overcast
3:30 AM 73.4 °F - 64.4 °F 73% 29.95 in 5.6 mi North 6.9 mph - N/A   Overcast
4:00 AM 73.4 °F - 64.4 °F 73% 29.95 in 5.6 mi North 5.8 mph - N/A   Overcast
4:30 AM 73.4 °F - 64.4 °F 73% 29.98 in 5.6 mi North 8.1 mph - N/A   Overcast
5:00 AM 73.4 °F - 64.4 °F 73% 29.95 in 6.2 mi NNE 3.5 mph - N/A   Mostly Cloudy
5:30 AM 73.4 °F - 64.4 °F 73% 29.98 in 6.2 mi NNE 4.6 mph - N/A   Mostly Cloudy
6:00 AM 73.4 °F - 64.4 °F 73% 29.98 in 6.2 mi NNE 4.6 mph - N/A   Mostly Cloudy
6:30 AM 73.4 °F - 64.4 °F 73% 30.01 in 5.6 mi NNW 4.6 mph - N/A   Mostly Cloudy
7:00 AM 74 °F - 65 °F 66% 29.99 in 5 mi NNE 3.5 mph - -   Mist
7:00 AM 73.4 °F - 64.4 °F 73% 30.01 in 5.0 mi NNW 5.8 mph - N/A   Mostly Cloudy
7:30 AM 73.4 °F - 64.4 °F 73% 30.04 in 5.0 mi NNE 4.6 mph - N/A   Mostly Cloudy
8:00 AM 75.2 °F - 64.4 °F 69% 30.04 in 5.0 mi NNE 3.5 mph - N/A   Mostly Cloudy
8:30 AM 75.2 °F - 64.4 °F 69% 30.04 in 5.0 mi NE 5.8 mph - N/A   Mostly Cloudy
9:00 AM 77.0 °F - 64.4 °F 65% 30.06 in 5.6 mi ENE 6.9 mph - N/A   Mostly Cloudy
9:30 AM 78.8 °F - 62.6 °F 57% 30.06 in 6.2 mi ENE 8.1 mph - N/A   Mostly Cloudy
10:00 AM 80.6 °F 81.8 °F 62.6 °F 54% 30.06 in 6.2 mi ENE 9.2 mph - N/A   Mostly Cloudy
10:30 AM 80.6 °F 81.8 °F 62.6 °F 54% 30.06 in 6.2 mi NNE 11.5 mph - N/A   Mostly Cloudy
11:00 AM 80.6 °F 82.3 °F 64.4 °F 58% 30.06 in 6.2 mi NE 10.4 mph - N/A   Mostly Cloudy
11:30 AM 80.6 °F 82.3 °F 64.4 °F 58% 30.04 in 6.2 mi NE 10.4 mph - N/A   Mostly Cloudy
12:00 PM 82.4 °F 83.9 °F 64.4 °F 54% 30.04 in 6.2 mi NNE 8.1 mph - N/A   Mostly Cloudy
12:30 PM 84.2 °F 85.6 °F 64.4 °F 51% 30.01 in 6.2 mi NE 8.1 mph - N/A   Mostly Cloudy
1:00 PM 84 °F - 65 °F 43% 29.97 in 6 mi NE 2.3 mph - -   Haze
1:00 PM 84.2 °F 85.6 °F 64.4 °F 51% 30.01 in 6.2 mi NNE 8.1 mph - N/A   Mostly Cloudy
1:30 PM 86.0 °F 87.3 °F 64.4 °F 48% 29.98 in 6.2 mi NE 10.4 mph - N/A   Mostly Cloudy
2:00 PM 86.0 °F 87.3 °F 64.4 °F 48% 29.98 in 6.2 mi NE 11.5 mph - N/A   Mostly Cloudy
2:30 PM 86.0 °F 87.3 °F 64.4 °F 48% 29.95 in 6.2 mi East 8.1 mph - N/A   Mostly Cloudy
3:00 PM 86.0 °F 87.3 °F 64.4 °F 48% 29.92 in 6.2 mi NE 10.4 mph - N/A   Mostly Cloudy
3:30 PM 86.0 °F 87.3 °F 64.4 °F 48% 29.92 in 6.2 mi NE 9.2 mph - N/A   Mostly Cloudy
4:00 PM 86.0 °F 87.3 °F 64.4 °F 48% 29.92 in 6.2 mi ENE 5.8 mph - N/A   Mostly Cloudy
4:30 PM 87.8 °F 90.4 °F 66.2 °F 49% 29.92 in 6.2 mi ENE 8.1 mph - N/A   Mostly Cloudy
5:00 PM 86.0 °F 87.3 °F 64.4 °F 48% 29.92 in 6.2 mi NE 9.2 mph - N/A   Mostly Cloudy
5:30 PM 86.0 °F 88.2 °F 66.2 °F 51% 29.92 in 6.2 mi ENE 5.8 mph - N/A   Mostly Cloudy
6:00 PM 86.0 °F 88.2 °F 66.2 °F 51% 29.92 in 6.2 mi NNE 9.2 mph - N/A   Mostly Cloudy
6:30 PM 82.4 °F 84.6 °F 66.2 °F 58% 29.92 in 6.2 mi NNE 8.1 mph - N/A   Mostly Cloudy
7:00 PM 83 °F - 69 °F 53% 29.92 in 5 mi Calm Calm - -   Haze
7:00 PM 82.4 °F 83.9 °F 64.4 °F 54% 29.95 in 6.2 mi North 9.2 mph - N/A   Mostly Cloudy
7:30 PM 84.2 °F 85.6 °F 64.4 °F 51% 29.95 in 6.2 mi North 9.2 mph - N/A   Mostly Cloudy
8:00 PM 84.2 °F 85.6 °F 64.4 °F 51% 29.95 in 6.2 mi NNW 9.2 mph - N/A   Mostly Cloudy
8:30 PM 82.4 °F 83.9 °F 64.4 °F 54% 29.95 in 6.2 mi NNW 8.1 mph - N/A   Mostly Cloudy
9:00 PM 82.4 °F 83.9 °F 64.4 °F 54% 29.98 in 6.2 mi NNW 6.9 mph - N/A   Mostly Cloudy
9:30 PM 82.4 °F 83.9 °F 64.4 °F 54% 29.98 in 6.2 mi NNW 8.1 mph - N/A   Mostly Cloudy
10:00 PM 82.4 °F 83.9 °F 64.4 °F 54% 29.98 in 6.2 mi North 11.5 mph - N/A   Mostly Cloudy
10:30 PM 80.6 °F 82.3 °F 64.4 °F 58% 29.98 in 6.2 mi North 8.1 mph - N/A   Mostly Cloudy
11:00 PM 78.8 °F - 66.2 °F 65% 29.98 in 6.2 mi North 8.1 mph - N/A   Mostly Cloudy
11:30 PM 77.0 °F - 66.2 °F 69% 29.98 in 6.2 mi NNE 6.9 mph - N/A   Mostly Cloudy